Weather History for Vero Beach, FL

Change the Weather History Date:

Tuesday, November 20, 2012

  Actual Average Record
Temperature  
Mean Temperature 66 °F 69 °F  
Max Temperature 73 °F 78 °F 86 °F (1986)
Min Temperature 58 °F 61 °F 40 °F (1968)
Degree Days  
Heating Degree Days 0 1  
Month to date heating degree days 20 12  
Since 1 July heating degree days 37 15  
Cooling Degree Days 1 5  
Month to date cooling degree days 63 134  
Year to date cooling degree days 3408 3262  
Growing Degree Days 15 (Base 50)    
Moisture  
Dew Point 58 °F    
Average Humidity 79    
Maximum Humidity 93    
Minimum Humidity 64    
Precipitation  
Precipitation 0.00 in 0.10 in 2.75 in (2005)
Month to date precipitation 0.85 2.31  
Year to date precipitation 46.39 48.71  
Sea Level Pressure  
Sea Level Pressure 30.00 in    
Wind  
Wind Speed 12 mph (NW)    
Max Wind Speed 24 mph    
Max Gust Speed 30 mph    
Visibility 10 miles    
Events      
T = Trace of Precipitation, MM = Missing Value Source: NWS Daily Summary

Daily Weather History Graph

Daily Weather History Graph

Search for Another Location

Airport:

Trip Planner

Search our weather history database for the weather conditions in past years. The results will help you decide how hot, cold, wet, or windy it might be!

Date:

Astronomy

Nov. 20, 2012 Rise Set
Actual Time 6:46 AM EST 5:27 PM EST
Civil Twilight 6:21 AM EST 5:52 PM EST
Nautical Twilight 5:53 AM EST 6:21 PM EST
Astronomical Twilight 5:25 AM EST 6:49 PM EST
Moon 12:38 PM EST No Moon Set
Length of Visible Light 11h 30m
Length of Day
10h 40m
Waxing Crescent, 51% of the Moon is Illuminated
Nov 20
Waxing Crescent
Nov 28
Full
Dec 6
Last Quarter
Dec 13
New
Dec 20
First Quarter

Hourly Weather History & Observations

Time (EST) Temp. Dew Point Humidity Pressure Visibility Wind Dir Wind Speed Gust Speed Precip Events Conditions
12:53 AM 57.9 °F 55.9 °F 93% 30.03 in 9.0 mi WNW 10.4 mph - N/A   Overcast
1:53 AM 57.9 °F 55.9 °F 93% 30.02 in 10.0 mi WNW 10.4 mph - N/A   Overcast
2:53 AM 59.0 °F 55.9 °F 90% 30.00 in 9.0 mi WNW 9.2 mph - N/A   Overcast
3:53 AM 59.0 °F 55.9 °F 90% 30.00 in 10.0 mi WNW 8.1 mph - N/A   Overcast
4:53 AM 60.1 °F 57.0 °F 90% 30.00 in 10.0 mi NW 10.4 mph - N/A   Overcast
5:53 AM 60.1 °F 57.0 °F 90% 30.00 in 10.0 mi WNW 10.4 mph - N/A   Overcast
6:53 AM 61.0 °F 57.9 °F 90% 30.01 in 10.0 mi NW 12.7 mph - N/A   Overcast
7:53 AM 61.0 °F 57.9 °F 90% 30.02 in 10.0 mi NNW 12.7 mph - N/A   Overcast
8:53 AM 63.0 °F 59.0 °F 87% 30.04 in 10.0 mi NNW 12.7 mph - N/A   Overcast
9:53 AM 66.0 °F 60.1 °F 81% 30.04 in 10.0 mi NNW 15.0 mph 20.7 mph N/A   Overcast
10:14 AM 68.0 °F 60.8 °F 78% 30.04 in 10.0 mi NNW 16.1 mph 20.7 mph N/A   Overcast
10:48 AM 69.8 °F 60.8 °F 73% 30.04 in 10.0 mi NNW 20.7 mph 26.5 mph N/A   Mostly Cloudy
10:53 AM 70.0 °F 61.0 °F 73% 30.04 in 10.0 mi North 17.3 mph 26.5 mph N/A   Mostly Cloudy
11:53 AM 72.0 °F 62.1 °F 71% 30.01 in 10.0 mi NNW 17.3 mph 28.8 mph N/A   Mostly Cloudy
12:40 PM 71.6 °F 60.8 °F 69% 29.99 in 10.0 mi North 19.6 mph 29.9 mph N/A   Scattered Clouds
12:53 PM 73.0 °F 61.0 °F 66% 29.99 in 10.0 mi North 20.7 mph 28.8 mph N/A   Scattered Clouds
2:53 PM 73.0 °F 60.1 °F 64% 29.96 in 10.0 mi NNW 18.4 mph 26.5 mph N/A   Mostly Cloudy
3:53 PM 71.1 °F 60.1 °F 68% 29.96 in 10.0 mi North 15.0 mph - N/A   Partly Cloudy
4:53 PM 69.1 °F 60.1 °F 73% 29.97 in 10.0 mi North 12.7 mph 19.6 mph N/A   Mostly Cloudy
5:53 PM 64.9 °F 59.0 °F 81% 29.97 in 10.0 mi NNW 12.7 mph - N/A   Scattered Clouds
6:27 PM 64.4 °F 59.0 °F 83% 29.98 in 10.0 mi NNW 15.0 mph 20.7 mph N/A   Mostly Cloudy
6:53 PM 64.0 °F 59.0 °F 84% 29.98 in 10.0 mi NNW 11.5 mph - N/A   Overcast
7:39 PM 62.6 °F 57.2 °F 82% 30.00 in 10.0 mi NW 9.2 mph - N/A   Mostly Cloudy
7:53 PM 62.1 °F 57.9 °F 86% 30.00 in 10.0 mi NW 6.9 mph - N/A   Partly Cloudy
8:12 PM 62.6 °F 57.2 °F 82% 30.01 in 10.0 mi NNW 5.8 mph - N/A   Mostly Cloudy
8:22 PM 62.6 °F 57.2 °F 82% 30.01 in 10.0 mi NW 6.9 mph - N/A   Scattered Clouds
8:53 PM 61.0 °F 57.0 °F 87% 30.01 in 10.0 mi NW 8.1 mph - N/A   Mostly Cloudy
9:16 PM 60.8 °F 57.2 °F 88% 30.01 in 10.0 mi NW 6.9 mph - N/A   Partly Cloudy
9:53 PM 60.1 °F 57.0 °F 90% 30.01 in 10.0 mi NW 9.2 mph - N/A   Clear
10:53 PM 59.0 °F 55.9 °F 90% 30.01 in 10.0 mi NW 6.9 mph - N/A   Clear
11:53 PM 57.9 °F 55.0 °F 90% 30.00 in 10.0 mi NW 6.9 mph - N/A   Clear